Regional Weather Roundup
Issued by NWS Boston, MA

Current Version | Previous Version | Text Only | Print | Product List | Glossary Off
Versions: 1 2 3 4 5 6 7 8 9 10 11 12 13 14 15 16 17 18 19 20 21 22 23 24 25 26 27 28

000
ASUS41 KBOX 280010
RWRBOX

REGIONAL WEATHER ROUNDUP
NATIONAL WEATHER SERVICE TAUNTON MA
800 PM EDT SAT MAY 27 2017

NOTE:  "FAIR" INDICATES FEW OR NO CLOUDS BELOW 12,000 FEET WITH NO
SIGNIFICANT WEATHER AND/OR OBSTRUCTIONS TO VISIBILITY.

MAZALL-280100-
EASTERN MASSACHUSETTS

CITY           SKY/WX    TMP DP  RH WIND       PRES   REMARKS
BOSTON         MOCLDY    56  48  74 SE9       29.91R
6HR MIN TEMP:  56; 6HR MAX TEMP:  60;

BEVERLY        CLOUDY    54  48  80 SE9       29.91R
LAWRENCE       CLOUDY    58  47  66 VRB5      29.92R
BEDFORD        CLOUDY    58  45  62 E7        29.89R
BLUE HILL        N/A     56  47  71 SE8       29.90R
NORWOOD        CLOUDY    60  50  69 SE8       29.90R
MARSHFIELD     CLOUDY    55  50  82 SE5       29.92R
PLYMOUTH       PTCLDY    55  47  74 E7        29.92R
TAUNTON        MOCLDY    60  51  72 SE6       29.91R
NEW BEDFORD    MOCLDY    58  51  78 S3        29.91R
$$

MAZALL-280100-
CAPE COD AND THE ISLANDS

CITY           SKY/WX    TMP DP  RH WIND       PRES   REMARKS
FALMOUTH         N/A    N/A N/A N/A MISG        N/A
HYANNIS        PTCLDY    53  47  79 SE3       29.93R
CHATHAM        PTCLDY    51  47  86 S3        29.94R
PROVINCETOWN   PTCLDY    51  46  83 S3        29.94R
NANTUCKET      CLOUDY    52  45  77 E3        29.93R
MARTHAS VNYRD  MOCLDY    57  49  74 SE3       29.93R
$$

MAZALL-280100-
CENTRAL AND WESTERN MASSACHUSETTS

CITY           SKY/WX    TMP DP  RH WIND       PRES   REMARKS
WORCESTER      CLOUDY    62  51  67 W6        29.90R
6HR MIN TEMP:  62; 6HR MAX TEMP:  67;

FITCHBURG      CLOUDY    69  51  52 S6        29.88R
ORANGE         CLOUDY    65  54  67 CALM      29.89R
SPRINGFIELD    CLOUDY    64  54  68 CALM      29.88R
WESTFIELD      NOT AVBL
NORTH ADAMS    CLOUDY    64  52  64 E3        29.89R
$$

RIZALL-280100-
RHODE ISLAND

CITY           SKY/WX    TMP DP  RH WIND       PRES   REMARKS
PROVIDENCE     MOCLDY    61  54  77 S6        29.90R
6HR MIN TEMP:  61; 6HR MAX TEMP:  69;

NEWPORT        MOCLDY    58  53  84 S5        29.91R
BLOCK ISLAND   CLOUDY    58  50  75 SW10      29.93R
SMITHFIELD     CLOUDY    61  53  75 CALM      29.91R
WESTERLY       PTCLDY    60  51  72 W5        29.92S
$$

CTZALL-280100-
CONNECTICUT

CITY           SKY/WX    TMP DP  RH WIND       PRES   REMARKS
BRADLEY INTL   CLOUDY    66  50  56 SW6       29.89R
6HR MIN TEMP:  66; 6HR MAX TEMP:  69;

HARTFORD       PTCLDY    64  54  69 S10       29.90R
BRIDGEPORT     CLOUDY    63  54  72 S5        29.91R
DANBURY        CLOUDY    61  57  87 S5        29.91R
GROTON         PTCLDY    59  52  77 SW6       29.91R
NEW HAVEN      CLOUDY    60  53  77 S6        29.92R
CHESTER        FAIR      59  54  82 SW5       29.92S
MERIDEN        CLOUDY    61  53  75 S7        29.91R
WILLIMANTIC    CLOUDY    66  54  65 SW8       29.90R
OXFORD         MOCLDY    61  52  72 S7        29.91S
$$

MEZ002-015-021-024-NHZ003-005-008-011-012-014-VTZ005-008-280100-
NORTHERN NEW ENGLAND

CITY           SKY/WX    TMP DP  RH WIND       PRES   REMARKS
PORTLAND ME    PTCLDY    51  46  83 S7        29.91R
6HR MIN TEMP:  51; 6HR MAX TEMP:  63;

BANGOR ME      PTCLDY    58  48  69 SE7       29.89R
CONCORD NH     CLOUDY    61  52  72 SE7       29.88R
MANCHESTER NH  CLOUDY    63  49  60 SE10      29.87R
NASHUA NH      CLOUDY    63  51  65 SE9G16    29.89R
PORTSMOUTH NH  MOCLDY    52  46  80 SE8       29.90R
JAFFREY NH     CLOUDY    64  58  80 CALM      29.89R
KEENE NH       CLOUDY    63  55  75 CALM      29.88R HAZE
BURLINGTON VT  PTCLDY    66  50  56 SW5       29.87S
MT. WASHINGTON PTCLDY    39  39  98 NW17        N/A  WCI  30
$$

NYZ052-076-280100-
EASTERN NEW YORK

CITY           SKY/WX    TMP DP  RH WIND       PRES   REMARKS
ALBANY         MOCLDY    68  50  52 CALM      29.88R
6HR MIN TEMP:  67; 6HR MAX TEMP:  71;

NEW YORK CITY  CLOUDY    68  55  63 SE10      29.88R
6HR MIN TEMP:  68; 6HR MAX TEMP:  72;

$$

ANZALL-280100-
MARINE OBSERVATIONS

STATION/POSITION TIME  TEMP    WIND        PRES    VSBY  WAVE
                       AIR SEA DIR/SP/G                  HT/PER
                 (UTC) (F)     (DEG/KT/KT) (MB)    (MI)  (FT/S)
BOSTON BUOY      2250   53 54  120/ 12/ 14 1012.1          2/ 7
BUZZARDS BAY     0000   57     210/ 10/ 10 1013.3R
NANTUCKET SOUND  2350      53              1013.5R         1
MASS BAY-STELLWA 2304   52 51  130/ 10/ 10 1012.2R         2/ 9
ISLE OF SHOALS   0000   49     170/ 13/ 14 1012.6R
S OF BLOCK IS    2355      57                N/A           3/ 7
$$

......................KEY.........................
  SKY/WX - SKY CONDITION/PRESENT WEATHER
  TMP    - TEMPERATURE IN FAHRENHEIT
  DWPT   - DEWPOINT IN FAHRENHEIT
  RH     - RELATIVE HUMIDITY IN PERCENT
  WIND   - DIRECTION AND SPEED IN MPH
  PRES   - MEAN SEA LEVEL PRESSURE IN INCHES OF HG
  WCI    - WIND CHILL INDEX
  VSB    - VISIBILITY IN MILES
  HX     - HEAT INDEX
  TC     - TEMPERATURE IN CELSIUS
  VRB    - VARIABLE WIND DIRECTION
  N/A    - NOT AVAILABLE




USA.gov is the U.S. government's official web portal to all federal, state and local government web resources and services.